| time (UTC) | temp F | wind direction | speed MPH | gust MPH | rain 1hr in | rain 24hr in | rain mn in | humidity % | barometer mb |
| 20260502123057 | 75 | 232 | 0.0 | 10.0 | 0.00 | 0.00 | 0.00 | 31 | 1019.8 |
| 20260502121554 | 75 | 207 | 0.0 | 8.0 | 0.00 | 0.00 | 0.00 | 32 | 1020.0 |
| 20260502114603 | 74 | 213 | 0.0 | 8.0 | 0.00 | 0.00 | 0.00 | 35 | 1020.4 |
| 20260502113049 | 74 | 259 | 0.0 | 10.0 | 0.00 | 0.00 | 0.00 | 31 | 1020.6 |
| 20260502111551 | 74 | 286 | 4.0 | 12.0 | 0.00 | 0.00 | 0.00 | 32 | 1020.9 |
| 20260502110044 | 73 | 217 | 0.0 | 4.0 | 0.00 | 0.00 | 0.00 | 31 | 1021.0 |
| 20260502104549 | 73 | 206 | 2.0 | 7.0 | 0.00 | 0.00 | 0.00 | 31 | 1021.3 |
| 20260502103040 | 73 | 231 | 2.0 | 11.0 | 0.00 | 0.00 | 0.00 | 33 | 1021.4 |
| 20260502101604 | 72 | 227 | 0.0 | 7.0 | 0.00 | 0.00 | 0.00 | 33 | 1021.6 |
| 20260502091532 | 71 | 230 | 0.0 | 4.0 | 0.00 | 0.00 | 0.00 | 35 | 1022.2 |
| 20260502071517 | 67 | 302 | 0.0 | 0.0 | 0.00 | 0.00 | 0.00 | 38 | 1022.9 |
| 20260502070017 | 67 | 304 | 0.0 | 0.0 | 0.00 | 0.00 | 0.00 | 40 | 1023.1 |
| 20260502064513 | 65 | 302 | 0.0 | 0.0 | 0.00 | 0.00 | 0.00 | 42 | 1023.1 |
| 20260502063008 | 64 | 313 | 0.0 | 0.0 | 0.00 | 0.00 | 0.00 | 45 | 1023.2 |
| 20260502061505 | 62 | 310 | 0.0 | 0.0 | 0.00 | 0.00 | 0.00 | 46 | 1023.2 |
| 20260502060104 | 61 | 321 | 0.0 | 0.0 | 0.00 | 0.00 | 0.00 | 48 | 1023.3 |
| 20260502054559 | 59 | 326 | 0.0 | 0.0 | 0.00 | 0.00 | 0.00 | 51 | 1023.3 |
| 20260502053152 | 57 | 333 | 0.0 | 0.0 | 0.00 | 0.00 | 0.00 | 54 | 1023.4 |
| 20260502051619 | 55 | 360 | 0.0 | 0.0 | 0.00 | 0.00 | 0.00 | 55 | 1023.4 |
| 20260502050051 | 53 | 9 | 0.0 | 0.0 | 0.00 | 0.00 | 0.00 | 57 | 1023.3 |
| 20260502044550 | 51 | 9 | 0.0 | 0.0 | 0.00 | 0.00 | 0.00 | 61 | 1023.3 |
| 20260502043052 | 50 | 9 | 0.0 | 0.0 | 0.00 | 0.00 | 0.00 | 62 | 1023.2 |
| 20260502041549 | 49 | 5 | 0.0 | 0.0 | 0.00 | 0.00 | 0.00 | 62 | 1023.3 |
| 20260502040055 | 49 | 5 | 0.0 | 0.0 | 0.00 | 0.00 | 0.00 | 62 | 1023.3 |
| 20260502034547 | 49 | 5 | 0.0 | 0.0 | 0.00 | 0.00 | 0.00 | 61 | 1023.3 |
| 20260502033046 | 50 | 5 | 0.0 | 0.0 | 0.00 | 0.00 | 0.00 | 61 | 1023.2 |
| 20260502031545 | 49 | 5 | 0.0 | 0.0 | 0.00 | 0.00 | 0.00 | 60 | 1023.2 |
| 20260502030045 | 49 | 5 | 0.0 | 0.0 | 0.00 | 0.00 | 0.00 | 60 | 1023.4 |
| 20260502024543 | 49 | 5 | 0.0 | 0.0 | 0.00 | 0.00 | 0.00 | 60 | 1023.4 |
| 20260502023055 | 50 | 5 | 0.0 | 0.0 | 0.00 | 0.00 | 0.00 | 60 | 1023.4 |
| 20260502021540 | 50 | 5 | 0.0 | 0.0 | 0.00 | 0.00 | 0.00 | 59 | 1023.5 |
| 20260502020048 | 50 | 5 | 0.0 | 0.0 | 0.00 | 0.00 | 0.00 | 57 | 1023.5 |
| 20260502014535 | 51 | 5 | 0.0 | 0.0 | 0.00 | 0.00 | 0.00 | 56 | 1023.5 |
| 20260502013052 | 52 | 5 | 0.0 | 0.0 | 0.00 | 0.00 | 0.00 | 54 | 1023.5 |
| 20260502011530 | 53 | 5 | 0.0 | 0.0 | 0.00 | 0.00 | 0.00 | 52 | 1023.5 |
| 20260502010026 | 54 | 277 | 0.0 | 0.0 | 0.00 | 0.00 | 0.00 | 51 | 1023.4 |
| 20260502004524 | 55 | 277 | 0.0 | 0.0 | 0.00 | 0.00 | 0.00 | 50 | 1023.3 |
| 20260502003026 | 55 | 278 | 0.0 | 0.0 | 0.00 | 0.00 | 0.00 | 49 | 1023.4 |
| 20260502001522 | 55 | 275 | 0.0 | 0.0 | 0.00 | 0.00 | 0.00 | 49 | 1023.5 |
| 20260502000021 | 55 | 275 | 0.0 | 0.0 | 0.00 | 0.00 | 0.00 | 49 | 1023.5 |
| 20260501234519 | 55 | 274 | 0.0 | 0.0 | 0.00 | 0.00 | 0.00 | 47 | 1023.5 |
| 20260501233021 | 56 | 274 | 0.0 | 0.0 | 0.00 | 0.00 | 0.00 | 46 | 1023.6 |
| 20260501231515 | 56 | 273 | 0.0 | 0.0 | 0.00 | 0.00 | 0.00 | 44 | 1023.5 |
| 20260501230015 | 57 | 271 | 0.0 | 0.0 | 0.00 | 0.00 | 0.00 | 42 | 1023.6 |
| 20260501224514 | 57 | 271 | 0.0 | 0.0 | 0.00 | 0.00 | 0.00 | 42 | 1023.6 |
| 20260501223013 | 56 | 270 | 0.0 | 0.0 | 0.00 | 0.00 | 0.00 | 43 | 1023.7 |
| 20260501221512 | 57 | 270 | 0.0 | 0.0 | 0.00 | 0.00 | 0.00 | 42 | 1023.7 |
| 20260501220016 | 57 | 270 | 0.0 | 0.0 | 0.00 | 0.00 | 0.00 | 42 | 1023.5 |
| 20260501214510 | 57 | 270 | 0.0 | 0.0 | 0.00 | 0.00 | 0.00 | 43 | 1023.4 |
| 20260501213009 | 57 | 269 | 0.0 | 0.0 | 0.00 | 0.00 | 0.00 | 42 | 1023.3 |
| 20260501211509 | 57 | 269 | 0.0 | 0.0 | 0.00 | 0.00 | 0.00 | 42 | 1023.3 |
| 20260501210011 | 58 | 269 | 0.0 | 0.0 | 0.00 | 0.00 | 0.00 | 42 | 1023.2 |
| 20260501204509 | 58 | 269 | 0.0 | 0.0 | 0.00 | 0.00 | 0.00 | 41 | 1023.2 |
| 20260501203009 | 58 | 269 | 0.0 | 0.0 | 0.00 | 0.00 | 0.00 | 41 | 1023.1 |
| 20260501201506 | 58 | 267 | 0.0 | 0.0 | 0.00 | 0.00 | 0.00 | 40 | 1023.1 |
| 20260501200006 | 59 | 266 | 0.0 | 0.0 | 0.00 | 0.00 | 0.00 | 39 | 1023.0 |
| 20260501194506 | 60 | 236 | 0.0 | 0.0 | 0.00 | 0.00 | 0.00 | 38 | 1022.9 |
| 20260501193005 | 61 | 236 | 0.0 | 0.0 | 0.00 | 0.00 | 0.00 | 37 | 1022.7 |
| 20260501191505 | 62 | 236 | 0.0 | 0.0 | 0.00 | 0.00 | 0.00 | 36 | 1022.6 |
| 20260501190004 | 62 | 236 | 0.0 | 0.0 | 0.00 | 0.00 | 0.00 | 35 | 1022.6 |
| 20260501184509 | 62 | 236 | 0.0 | 0.0 | 0.00 | 0.00 | 0.00 | 35 | 1022.4 |
| 20260501183004 | 63 | 235 | 0.0 | 0.0 | 0.00 | 0.00 | 0.00 | 35 | 1022.3 |
| 20260501181512 | 64 | 244 | 0.0 | 0.0 | 0.00 | 0.00 | 0.00 | 33 | 1022.2 |
| 20260501180003 | 65 | 222 | 0.0 | 1.0 | 0.00 | 0.00 | 0.00 | 34 | 1022.0 |
| 20260501174501 | 66 | 207 | 0.0 | 2.0 | 0.00 | 0.00 | 0.00 | 31 | 1021.9 |
| 20260501173004 | 66 | 193 | 0.0 | 2.0 | 0.00 | 0.00 | 0.00 | 30 | 1021.8 |
| 20260501171602 | 67 | 178 | 0.0 | 4.0 | 0.00 | 0.00 | 0.00 | 29 | 1021.8 |
| 20260501170107 | 68 | 225 | 0.0 | 4.0 | 0.00 | 0.00 | 0.00 | 29 | 1021.7 |
| 20260501164600 | 68 | 250 | 0.0 | 4.0 | 0.00 | 0.00 | 0.00 | 30 | 1021.9 |
| 20260501163100 | 68 | 211 | 0.0 | 6.0 | 0.00 | 0.00 | 0.00 | 28 | 1021.9 |
| 20260501161559 | 68 | 202 | 0.0 | 9.0 | 0.00 | 0.00 | 0.00 | 28 | 1022.0 |
| 20260501160131 | 69 | 218 | 1.0 | 5.0 | 0.00 | 0.00 | 0.00 | 29 | 1022.1 |
| 20260501154603 | 69 | 236 | 0.0 | 10.0 | 0.00 | 0.00 | 0.00 | 30 | 1022.1 |
| 20260501153056 | 69 | 212 | 1.0 | 5.0 | 0.00 | 0.00 | 0.00 | 29 | 1022.3 |
| 20260501151554 | 69 | 268 | 2.0 | 5.0 | 0.00 | 0.00 | 0.00 | 30 | 1022.3 |
| 20260501150055 | 69 | 213 | 1.0 | 5.0 | 0.00 | 0.00 | 0.00 | 31 | 1022.4 |
| 20260501144556 | 70 | 243 | 0.0 | 5.0 | 0.00 | 0.00 | 0.00 | 30 | 1022.5 |
| 20260501143109 | 70 | 298 | 0.0 | 3.0 | 0.00 | 0.00 | 0.00 | 29 | 1022.5 |
| 20260501141550 | 69 | 264 | 1.0 | 4.0 | 0.00 | 0.00 | 0.00 | 30 | 1022.7 |